• In Netherlands
  • List of Countries
  • For 7 days
  • Water Temperature
  • Satellite Maps
  • Weather Map
  • Weather Widgets
  • user-avatar
    Login

    Hourly Weather Kurapovo

    Today, 21 June, Thursday

    Time Temperature Precipitation Wind Pressure Humidity
    00:00 +14°C° 0 mm 2 mps 743 mmHg 88%
    01:00 +13°C° 0 mm 2 mps 743 mmHg 90%
    02:00 +13°C° 0 mm 2 mps 743 mmHg 93%
    03:00 +13°C° 0 mm 2 mps 743 mmHg 92%
    04:00 +13°C° 0 mm 2 mps 743 mmHg 91%
    05:00 +14°C° 0 mm 2 mps 743 mmHg 90%
    06:00 +16°C° 0 mm 3 mps 743 mmHg 85%
    07:00 +18°C° 0 mm 3 mps 743 mmHg 80%
    08:00 +20°C° 0 mm 3 mps 743 mmHg 74%
    09:00 +21°C° 0 mm 4 mps 743 mmHg 69%
    10:00 +22°C° 0 mm 4 mps 743 mmHg 65%
    11:00 +25°C° 0 mm 4 mps 742 mmHg 60%
    12:00 +25°C° 0 mm 4 mps 742 mmHg 60%
    13:00 +26°C° 0 mm 4 mps 742 mmHg 59%
    14:00 +26°C° 0 mm 4 mps 741 mmHg 58%
    15:00 +26°C° 0 mm 4 mps 741 mmHg 61%
    16:00 +26°C° 0 mm 4 mps 740 mmHg 64%
    17:00 +26°C° 0 mm 3 mps 740 mmHg 67%
    18:00 +24°C° 0 mm 3 mps 739 mmHg 71%
    19:00 +22°C° 0 mm 3 mps 739 mmHg 75%
    20:00 +21°C° 0 mm 3 mps 738 mmHg 79%
    21:00 +20°C° 0 mm 4 mps 738 mmHg 79%
    22:00 +20°C° 0 mm 4 mps 738 mmHg 78%
    23:00 +20°C° 0 mm 4 mps 737 mmHg 78%

    Tomorrow, 22 June, Friday

    Time Temperature Precipitation Wind Pressure Humidity
    00:00 +20°C° 0.1 mm 5 mps 737 mmHg 79%
    01:00 +20°C° 0.1 mm 5 mps 736 mmHg 81%
    02:00 +20°C° 0.1 mm 5 mps 735 mmHg 83%
    03:00 +20°C° 0.3 mm 6 mps 735 mmHg 86%
    04:00 +20°C° 0.3 mm 6 mps 735 mmHg 90%
    05:00 +19°C° 0.3 mm 6 mps 735 mmHg 94%
    06:00 +19°C° 0.4 mm 6 mps 735 mmHg 93%
    07:00 +19°C° 0.4 mm 6 mps 735 mmHg 93%
    08:00 +19°C° 0.4 mm 6 mps 736 mmHg 92%
    09:00 +17°C° 0.6 mm 5 mps 736 mmHg 91%
    10:00 +15°C° 0.6 mm 4 mps 737 mmHg 90%
    11:00 +14°C° 0.6 mm 4 mps 737 mmHg 90%
    12:00 +14°C° 0.1 mm 3 mps 737 mmHg 87%
    13:00 +14°C° 0.1 mm 3 mps 738 mmHg 84%
    14:00 +16°C° 0.1 mm 2 mps 738 mmHg 82%
    15:00 +16°C° 0 mm 2 mps 738 mmHg 82%
    16:00 +16°C° 0 mm 2 mps 739 mmHg 82%
    17:00 +16°C° 0 mm 2 mps 739 mmHg 83%
    18:00 +16°C° 0 mm 2 mps 739 mmHg 82%
    19:00 +15°C° 0 mm 2 mps 739 mmHg 82%
    20:00 +15°C° 0 mm 2 mps 740 mmHg 82%
    21:00 +14°C° 0 mm 2 mps 740 mmHg 81%
    22:00 +13°C° 0 mm 2 mps 740 mmHg 81%
    23:00 +13°C° 0 mm 2 mps 740 mmHg 81%

    Day after tomorrow, 23 June, Saturday

    Time Temperature Precipitation Wind Pressure Humidity
    00:00 +13°C° 0 mm 1 mps 740 mmHg 80%
    01:00 +13°C° 0 mm 1 mps 740 mmHg 79%
    02:00 +12°C° 0 mm 1 mps 740 mmHg 79%
    03:00 +12°C° 0.1 mm 1 mps 740 mmHg 81%
    04:00 +12°C° 0.1 mm 1 mps 740 mmHg 82%
    05:00 +12°C° 0.1 mm 1 mps 740 mmHg 84%
    06:00 +12°C° 0.8 mm 1 mps 740 mmHg 86%
    07:00 +13°C° 0.8 mm 1 mps 740 mmHg 87%
    08:00 +13°C° 0.8 mm 1 mps 740 mmHg 89%
    09:00 +13°C° 0.7 mm 1 mps 740 mmHg 88%
    10:00 +13°C° 0.7 mm 2 mps 740 mmHg 87%
    11:00 +13°C° 0.7 mm 2 mps 740 mmHg 86%
    12:00 +13°C° 0.4 mm 2 mps 740 mmHg 86%
    13:00 +13°C° 0.4 mm 2 mps 740 mmHg 86%
    14:00 +13°C° 0.4 mm 1 mps 740 mmHg 85%
    15:00 +13°C° 0.5 mm 1 mps 740 mmHg 87%
    16:00 +13°C° 0.5 mm 1 mps 739 mmHg 89%
    17:00 +13°C° 0.5 mm 1 mps 739 mmHg 91%
    18:00 +12°C° 0.1 mm 1 mps 739 mmHg 92%
    19:00 +12°C° 0.1 mm 1 mps 739 mmHg 94%
    20:00 +12°C° 0.1 mm 1 mps 738 mmHg 95%
    21:00 +12°C° 0.2 mm 2 mps 738 mmHg 95%
    22:00 +12°C° 0.2 mm 2 mps 738 mmHg 96%
    23:00 +10°C° 0.2 mm 2 mps 738 mmHg 96%

    24 June, Sunday

    Time Temperature Precipitation Wind Pressure Humidity
    00:00 +10°C° 0.8 mm 2 mps 737 mmHg 96%
    01:00 +10°C° 0.8 mm 3 mps 737 mmHg 96%
    02:00 +10°C° 0.8 mm 3 mps 737 mmHg 96%
    03:00 +10°C° 1.5 mm 3 mps 737 mmHg 96%
    04:00 +10°C° 1.5 mm 3 mps 737 mmHg 96%
    05:00 +11°C° 1.5 mm 3 mps 736 mmHg 96%
    06:00 +11°C° 1.3 mm 3 mps 737 mmHg 95%
    07:00 +11°C° 1.3 mm 3 mps 737 mmHg 94%
    08:00 +12°C° 1.3 mm 3 mps 737 mmHg 93%
    09:00 +13°C° 0.4 mm 3 mps 738 mmHg 88%
    10:00 +14°C° 0.4 mm 4 mps 738 mmHg 83%
    11:00 +15°C° 0.4 mm 4 mps 738 mmHg 78%
    12:00 +15°C° 0.1 mm 4 mps 739 mmHg 73%
    13:00 +17°C° 0.1 mm 4 mps 739 mmHg 68%
    14:00 +18°C° 0.1 mm 4 mps 740 mmHg 63%
    15:00 +18°C° 0.3 mm 3 mps 740 mmHg 64%
    16:00 +18°C° 0.3 mm 3 mps 741 mmHg 66%
    17:00 +18°C° 0.3 mm 2 mps 741 mmHg 67%
    18:00 +17°C° 0.2 mm 2 mps 741 mmHg 72%
    19:00 +15°C° 0.2 mm 1 mps 741 mmHg 77%
    20:00 +14°C° 0.2 mm 1 mps 742 mmHg 82%
    21:00 +13°C° 0 mm 1 mps 742 mmHg 85%
    22:00 +12°C° 0 mm 1 mps 742 mmHg 88%
    23:00 +10°C° 0 mm 2 mps 742 mmHg 91%

    25 June, Monday

    Time Temperature Precipitation Wind Pressure Humidity
    00:00 +10°C° 0 mm 2 mps 742 mmHg 92%
    01:00 +9°C° 0 mm 2 mps 743 mmHg 93%
    02:00 +9°C° 0 mm 2 mps 743 mmHg 94%
    03:00 +9°C° 0 mm 2 mps 743 mmHg 95%
    04:00 +10°C° 0 mm 2 mps 743 mmHg 95%
    05:00 +10°C° 0 mm 2 mps 744 mmHg 95%
    06:00 +12°C° 0 mm 2 mps 744 mmHg 91%
    07:00 +14°C° 0 mm 2 mps 744 mmHg 86%
    08:00 +16°C° 0 mm 2 mps 744 mmHg 82%
    09:00 +17°C° 0.3 mm 3 mps 744 mmHg 78%
    10:00 +18°C° 0.3 mm 3 mps 745 mmHg 74%
    11:00 +19°C° 0.3 mm 3 mps 745 mmHg 69%
    12:00 +19°C° 0.9 mm 3 mps 745 mmHg 70%
    13:00 +20°C° 0.9 mm 3 mps 745 mmHg 70%
    14:00 +20°C° 0.9 mm 3 mps 745 mmHg 70%
    15:00 +20°C° 0.5 mm 3 mps 745 mmHg 71%
    16:00 +19°C° 0.5 mm 2 mps 745 mmHg 72%
    17:00 +19°C° 0.5 mm 2 mps 745 mmHg 73%
    18:00 +18°C° 0.3 mm 2 mps 745 mmHg 78%
    19:00 +18°C° 0.3 mm 1 mps 745 mmHg 82%
    20:00 +15°C° 0.3 mm 1 mps 745 mmHg 86%
    21:00 +14°C° 0 mm 1 mps 745 mmHg 88%
    22:00 +14°C° 0 mm 1 mps 746 mmHg 90%
    23:00 +13°C° 0 mm 1 mps 746 mmHg 91%

    26 June, Tuesday

    Time Temperature Precipitation Wind Pressure Humidity
    00:00 +12°C° 0 mm 1 mps 746 mmHg 92%
    01:00 +12°C° 0 mm 1 mps 746 mmHg 93%
    02:00 +11°C° 0 mm 1 mps 746 mmHg 93%
    03:00 +12°C° 0 mm 1 mps 746 mmHg 94%
    04:00 +12°C° 0 mm 1 mps 747 mmHg 94%
    05:00 +12°C° 0 mm 2 mps 747 mmHg 94%
    06:00 +14°C° 0 mm 2 mps 747 mmHg 90%
    07:00 +15°C° 0 mm 2 mps 747 mmHg 85%
    08:00 +17°C° 0 mm 2 mps 747 mmHg 81%
    09:00 +18°C° 0.1 mm 2 mps 747 mmHg 75%
    10:00 +20°C° 0.1 mm 3 mps 748 mmHg 69%
    11:00 +21°C° 0.1 mm 3 mps 748 mmHg 62%
    12:00 +21°C° 0.2 mm 3 mps 748 mmHg 62%
    13:00 +22°C° 0.2 mm 3 mps 747 mmHg 61%
    14:00 +22°C° 0.2 mm 3 mps 747 mmHg 61%
    15:00 +23°C° 0.3 mm 2 mps 747 mmHg 62%
    16:00 +23°C° 0.3 mm 2 mps 748 mmHg 63%
    17:00 +23°C° 0.3 mm 1 mps 748 mmHg 64%
    18:00 +21°C° 0.1 mm 1 mps 748 mmHg 70%
    19:00 +19°C° 0.1 mm 2 mps 748 mmHg 76%
    20:00 +18°C° 0.1 mm 2 mps 748 mmHg 81%
    21:00 +17°C° 0 mm 2 mps 748 mmHg 84%
    22:00 +16°C° 0 mm 2 mps 748 mmHg 86%
    23:00 +15°C° 0 mm 2 mps 748 mmHg 88%
    Show more